Location: Trebic
(49.2170°N, 15.8830°E)
Time: 14:52:54
(UTC+02:00)

Transit 4A - Pass Details

Date: 29 August 2019
Orbit: 865 x 980 km, 66.8° (Epoch: 21 September)

Event Time Altitude Azimuth Distance (km) Brightness Sun altitude
Rises 15:42:18 0° 151° (SSE) 3,664 11.1 37.4°
Reaches altitude 10° 15:46:30 10° 125° (SE) 2,727 10.3 36.9°
Maximum altitude 15:49:08 13° 100° (E) 2,525 9.9 36.5°
Drops below altitude 10° 15:51:46 10° 76° (ENE) 2,730 10.0 36.1°
Sets 15:55:56 0° 50° (NE) 3,672 10.5 35.6°
